This demonstration page uses our WeatherBlox Daily Observations layout. Learn more.

Left ArrowRight Arrow

44.8408, -93.29828

Hourly Observations for October 1, 2021

Temp ( °F °C ) Dew Point ( °F °C ) Humidity (%) Winds ( mph kmh ) Pressure ( in mb ) Visibility ( mi km ) Precip ( " mm )
12:53 am 00:53 Partly Cloudy 70 21.1 62 16.7 76 76 SE 3 6 30.07 1018 10 16 N/A
1:53 am 01:53 Cloudy 70 21.1 62 16.7 76 76 SE 7 11 30.07 1018 10 16 N/A
2:53 am 02:53 Mostly Cloudy 70 21.1 61 16.1 73 73 S 9 15 30.08 1019 10 16 N/A
3:53 am 03:53 Mostly Cloudy 70 21.1 61 16.1 73 73 S 5 7 30.07 1018 10 16 N/A
4:53 am 04:53 Mostly Cloudy 67 19.4 61 16.1 81 81 SE 7 11 30.06 1018 9 14 N/A
5:53 am 05:53 Cloudy 66 18.9 61 16.1 84 84 ESE 6 9 30.06 1018 9 14 N/A
6:53 am 06:53 Mostly Cloudy 64 17.8 60 15.6 87 87 SSE 6 9 30.06 1018 9 14 N/A
7:53 am 07:53 Mostly Cloudy 66 18.9 61 16.1 84 84 N N/A 30.08 1019 10 16 N/A
8:53 am 08:53 Mostly Cloudy 67 19.4 61 16.1 81 81 SE 3 6 30.09 1019 8 13 N/A
9:53 am 09:53 Mostly Cloudy 68 20 62 16.7 81 81 SE 5 7 30.09 1019 9 14 0.00 0.00
10:53 am 10:53 Mostly Cloudy 71 21.7 63 17.2 76 76 S 3 6 30.09 1019 10 16 N/A
11:53 am 11:53 Mostly Cloudy 75 23.9 63 17.2 66 66 VRB 6 9 30.07 1018 10 16 N/A
12:53 pm 12:53 Mostly Cloudy 76 24.4 64 17.8 67 67 S 9 15 30.06 1018 10 16 N/A
1:53 pm 13:53 Mostly Cloudy 76 24.4 63 17.2 64 64 SW 7 11 30.05 1018 10 16 N/A
2:53 pm 14:53 Mostly Cloudy 78 25.6 61 16.1 56 56 SW 8 13 30.03 1017 10 16 N/A
3:53 pm 15:53 Mostly Cloudy 79 26.1 61 16.1 54 54 SW 6 9 30.02 1017 10 16 N/A
4:53 pm 16:53 Mostly Cloudy 78 25.6 61 16.1 56 56 N N/A 30.01 1016 10 16 N/A
5:53 pm 17:53 Mostly Cloudy 77 25 62 16.7 60 60 N 5 7 30.00 1016 10 16 N/A
6:53 pm 18:53 Mostly Cloudy 75 23.9 61 16.1 62 62 NNE 5 7 29.98 1015 10 16 N/A
7:53 pm 19:53 Cloudy with Light Rain 76 24.4 62 16.7 62 62 ENE 6 9 29.98 1015 10 16 0.00 0.00
8:53 pm 20:53 Cloudy with Light Rain 72 22.2 64 17.8 76 76 SSW 10 17 30.00 1016 9 14 0.00 0.00
9:53 pm 21:53 Cloudy with Light Rain 70 21.1 65 18.3 84 84 VRB 3 6 29.98 1015 10 16 0.01 0.25
10:53 pm 22:53 Cloudy 69 20.6 65 18.3 87 87 SE 7 11 29.97 1015 10 16 0.00 0.00
11:51 pm 23:51 Cloudy 70 21 64 18 83 83 SSE 8 13 29.94 1014 10 16 N/A
11:53 pm 23:53 Cloudy 68 20 64 17.8 87 87 SSE 8 13 29.96 1015 10 16 N/A

Powered by AerisWeather